Location: Windsor
(43.2292°N, 89.3015°W)
Time: 21:20:50
(UTC+00:00)

MOZHAYETS 4 - Pass Details

Date: 03 July 2022
Orbit: 660 x 678 km, 98.2° (Epoch: 16 August)

Event Time Altitude Azimuth Distance (km) Brightness Sun altitude
Exits shadow 07:00:26 - 116° (ESE) 2,646 10.7 -22.4°
Reaches altitude 10° 07:02:14 10° 103° (ESE) 2,109 10.3 -22.4°
Maximum altitude 07:05:11 17° 63° (ENE) 1,681 10.3 -22.2°
Drops below altitude 10° 07:08:09 10° 22° (NNE) 2,111 11.4 -22.1°
Sets 07:11:02 0° 3° (N) 3,026 12.5 -21.9°
